Location: Unspecified
(42.2936°N, 3.1641°W)
Time: 11:26:00
(UTC+01:00)

Envisat - Visible Passes

Search period start: 27 February 2021 00:00
Search period end: 09 March 2021 00:00
Orbit: 764 x 766 km, 98.1° (Epoch: 26 February)

Date Brightness Start Highest point End Pass type
(mag) Time Alt. Az. Time Alt. Az. Time Alt. Az.
27 Feb 3.3 06:50:01 10° NNE 06:55:07 74° ESE 07:00:11 10° S visible
28 Feb 4.8 06:13:36 10° NNE 06:18:10 33° E 06:22:43 10° SSE visible
01 Mar 6.0 05:38:08 10° NE 05:41:01 15° E 05:43:53 10° SE visible
01 Mar 3.0 07:15:27 10° N 07:20:29 65° WNW 07:25:30 10° SSW visible
02 Mar 3.7 06:38:39 10° NNE 06:43:41 58° E 06:48:40 10° S visible
02 Mar 6.6 19:36:16 10° WSW 19:38:13 12° W 19:40:10 10° WNW visible
03 Mar 5.3 06:02:25 10° NE 06:06:40 26° E 06:10:53 10° SSE visible
04 Mar 6.2 05:27:44 10° ENE 05:29:27 12° E 05:31:10 10° ESE visible
04 Mar 3.0 07:03:59 10° N 07:09:05 82° WNW 07:14:09 10° SSW visible
05 Mar 4.2 06:27:20 10° NNE 06:32:13 45° E 06:37:03 10° S visible
06 Mar 5.6 05:51:21 10° NE 05:55:08 21° E 05:58:55 10° SE visible
07 Mar 3.2 06:52:33 10° NNE 06:57:40 80° ESE 07:02:44 10° S visible
08 Mar 4.7 06:16:04 10° NNE 06:20:44 36° E 06:25:22 10° SSE visible
